[[{"header":{"parameterUnit":"m.s-1","parameterCategory":1,"la1":30.2991,"la2":30.254,"lo1":-89.0895,"lo2":-89.0444,"dy":0.0017,"dx":0.0017,"nx":28,"ny":28,"refTime":"2024-03-23T09:00:00:Z","depth":0,"parameterNumber":2,"parameterNumberName":"U-component_of_WINDS"},"data":[0,0,0,0,0,0,0,0,0,0,0,0,0,0,0,0,0,0,0,0,0,0,0,0,0,0,0,0,0,0,0,0,0,0,0,0,0,0,0,0,0,0,0,0,0,0,0,0,0,0,0,0,0,0,0,0,0,0,-4.417,-4.417,0,-4.4166,-4.4166,-4.4166,-4.4097,-4.4095,-4.4093,-4.4091,-4.4088,-4.4089,-4.4091,0,0,0,0,0,0,0,0,0,0,0,0,0,-4.4119,-4.412,-4.417,-4.417,-4.417,-4.4166,-4.4166,-4.4166,-4.4097,-4.4095,-4.4093,-4.4091,-4.4087,-4.4089,-4.4091,0,0,0,0,0,0,0,0,0,0,0,0,0,-4.4131,-4.412,-4.417,-4.4135,-4.4132,-4.4166,-4.4166,-4.4166,-4.4097,-4.4095,-4.4092,-4.409,-4.4086,-4.4089,-4.4091,-4.4159,0,0,-4.4098,-4.4099,0,0,0,0,0,0,0,0,-4.413,-4.4133,-4.414,-4.4138,-4.4134,-4.4129,-4.4147,-4.4164,-4.4098,-4.4111,-4.4091,-4.4088,-4.4104,-4.4104,-4.411,-4.4159,-4.4159,-4.4098,-4.41,-4.4101,-4.4101,0,0,0,0,0,0,0,-4.4129,-4.4132,-4.4169,-4.4141,-4.4137,-4.412,-4.4119,-4.415,-4.4122,-4.4109,-4.4104,-4.4105,-4.4101,-4.4107,-4.4109,-4.4158,-4.4098,-4.41,-4.4102,-4.4103,-4.4263,-4.4266,0,0,0,0,0,0,-4.4133,-4.4132,-4.4169,-4.4169,-4.4126,-4.4123,-4.4122,-4.4134,-4.4122,-4.4117,-4.4107,-4.4102,-4.4105,-4.4106,-4.4109,-4.4186,-4.4101,-4.4103,-4.4104,-4.426,-4.4264,-4.4267,0,0,0,0,0,0,-4.4132,-4.4137,-4.4169,-4.4149,-4.4152,-4.4127,-4.4141,-4.4135,-4.4141,-4.412,-4.4115,-4.4118,-4.4103,-4.4105,-4.4147,-4.4185,-4.4104,-4.4106,-4.4257,-4.4261,-4.4265,-4.4342,0,0,0,0,0,0,-4.4131,-4.4137,-4.4162,-4.415,-4.4153,-4.4207,-4.4143,-4.4137,-4.4145,-4.4138,-4.4129,-4.4125,-4.4101,-4.4144,-4.4149,-4.4186,-4.4108,-4.4253,-4.4259,-4.4264,-4.4336,-4.4348,-4.4359,0,0,0,0,0,-4.413,-4.4184,-4.4164,-4.4169,-4.4184,-4.4209,-4.4211,-4.4182,-4.4148,-4.4173,-4.416,-4.4125,-4.4181,-4.4149,-4.4154,-4.4193,-4.4251,-4.4257,-4.4263,-4.4331,-4.4346,-4.4359,0,0,0,0,0,0,-4.4201,-4.4182,-4.4159,-4.4211,-4.4213,-4.4197,-4.4228,-4.4199,-4.421,-4.4203,-4.4167,-4.4166,-4.4213,-4.4207,-4.4172,-4.4258,-4.421,-4.4217,-4.4259,-4.4273,-4.4284,-4.4283,-4.411,0,0,0,0,0,-4.4223,-4.4245,-4.4227,-4.4275,-4.4277,-4.4253,-4.4263,-4.4241,-4.4241,-4.4241,-4.423,-4.4232,-4.4249,-4.4262,-4.4277,-4.4336,-4.4333,-4.4366,-4.4378,-4.4387,-4.4393,-4.4423,-4.4437,-4.4288,-4.4288,-4.4288,0,0,-4.4268,-4.426,-4.4276,-4.4289,-4.4287,-4.4311,-4.4253,-4.4281,-4.4298,-4.4245,-4.4282,-4.4276,-4.4275,-4.4326,-4.4348,-4.4323,-4.4434,-4.4395,-4.4403,-4.4404,-4.4431,-4.4446,-4.4458,-4.4292,-4.4291,-4.4291,0,0,-4.4361,-4.4358,-4.4397,-4.4397,-4.4396,-4.438,-4.439,-4.438,-4.4373,-4.4411,-4.4371,-4.4392,-4.4423,-4.4424,-4.4429,-4.4526,-4.4493,-4.4532,-4.4591,-4.4621,-4.4633,-4.4643,-4.4675,-4.4688,-4.4539,-4.4539,-4.4539,0,-4.4416,-4.445,-4.4421,-4.4451,-4.4457,-4.4412,-4.4451,-4.4453,-4.4457,-4.4462,-4.4435,-4.4474,-4.447,-4.452,-4.4544,-4.455,-4.4559,-4.4531,-4.4634,-4.4643,-4.4652,-4.4683,-4.4696,-4.4544,-4.4543,-4.4543,-4.4542,0,-4.4518,-4.4542,-4.4574,-4.4579,-4.459,-4.4625,-4.4601,-4.4616,-4.4594,-4.4581,-4.4621,-4.4615,-4.4628,-4.464,-4.4618,-4.4687,-4.4671,-4.464,-4.459,-4.4672,-4.47,-4.4711,-4.455,-4.4548,-4.4547,-4.4546,0,0,-4.4652,-4.4642,-4.4654,-4.4655,-4.4652,-4.467,-4.4704,-4.4717,-4.4729,-4.4735,-4.4761,-4.479,-4.4761,-4.4767,-4.4746,-4.4773,-4.4848,-4.4738,-4.4737,-4.4756,-4.4921,-4.4942,-4.4956,-4.4828,-4.4831,-4.4832,-4.492,0,-4.474,-4.4795,-4.477,-4.4828,-4.485,-4.4809,-4.4838,-4.4839,-4.4829,-4.4846,-4.4836,-4.4856,-4.4817,-4.482,-4.4845,-4.4833,-4.488,-4.4827,-4.4851,-4.4852,-4.4849,-4.4971,-4.4994,-4.5077,-4.4931,-4.4933,-4.4934,0,-4.4848,-4.4858,-4.4918,-4.4911,-4.492,-4.4946,-4.4956,-4.4974,-4.4975,-4.4966,-4.4974,-4.4947,-4.498,-4.4934,-4.4977,-4.4942,-4.4951,-4.4947,-4.495,-4.4948,-4.4896,-4.497,-4.5103,-4.5114,-4.4952,-4.4951,-4.4949,0,-4.4937,-4.4966,-4.5005,-4.5008,-4.5002,-4.5021,-4.502,-4.5018,-4.5028,-4.5038,-4.5044,-4.5058,-4.5065,-4.5076,-4.5055,-4.5023,-4.5101,-4.5053,-4.5093,-4.5094,-4.5108,-4.5107,-4.5241,-4.512,-4.512,-4.512,-4.5119,0,-4.5036,-4.5073,-4.5045,-4.5069,-4.511,-4.5083,-4.5125,-4.5119,-4.5118,-4.514,-4.5107,-4.5129,-4.51,-4.5119,-4.5103,-4.5141,-4.5146,-4.5138,-4.5133,-4.5139,-4.514,-4.5142,-4.5134,-4.5123,-4.5122,-4.5121,-4.5121,0,-4.514,-4.5122,-4.5162,-4.5154,-4.5153,-4.5183,-4.5176,-4.5198,-4.5187,-4.5215,-4.5221,-4.5203,-4.5224,-4.5204,-4.5224,-4.5214,-4.5264,-4.5252,-4.5263,-4.5258,-4.5298,-4.5294,-4.5435,-4.5452,-4.5323,-4.5325,-4.5326,0,-4.5202,-4.523,-4.5225,-4.5237,-4.5238,-4.5259,-4.5269,-4.5245,-4.5256,-4.5261,-4.5282,-4.53,-4.5313,-4.5348,-4.5337,-4.5353,-4.5339,-4.5388,-4.534,-4.5346,-4.5336,-4.5333,-4.5335,-4.5396,-4.5397,-4.5399,-4.54,0,-4.5314,-4.5304,-4.532,-4.5333,-4.5346,-4.5355,-4.5362,-4.5374,-4.535,-4.5365,-4.5386,-4.5396,-4.5417,-4.5435,-4.5447,-4.5445,-4.5418,-4.5416,-4.5425,-4.543,-4.5434,-4.543,-4.5285,-4.5411,-4.541,-4.5409,-4.5409,-4.5408,-4.5397,-4.5419,-4.542,-4.5438,-4.5441,-4.5449,-4.5469,-4.5461,-4.5478,-4.5492,-4.5478,-4.5503,-4.5505,-4.5518,-4.5521,-4.554,-4.5519,-4.5534,-4.5537,-4.554,-4.5545,-4.5434,-4.5543,-4.5542,-4.5542,-4.5542,-4.5541,0,-4.5504,-4.5503,-4.5521,-4.5531,-4.5546,-4.5522,-4.5528,-4.5542,-4.5565,-4.5569,-4.5583,-4.5607,-4.5625,-4.5617,-4.5632,-4.565,-4.5638,-4.5654,-4.5651,-4.5651,-4.5563,-4.5552,-4.5664,-4.5664,-4.5664,-4.5664,-4.5664,-4.5664,-4.5562,-4.5599,-4.559,-4.5628,-4.5627,-4.5651,-4.5657,-4.5664,-4.5667,-4.5695,-4.571,-4.5705,-4.5704,-4.572,-4.5735,-4.5732,-4.5738,-4.5759,-4.5752,-4.5669,-4.5657,-4.5645,-4.5635,-4.5762,-4.5762,-4.5837,-4.5838,-4.5838]},{"header":{"parameterUnit":"m.s-1","parameterCategory":1,"la1":30.2991,"la2":30.254,"lo1":-89.0895,"lo2":-89.0444,"dy":0.0017,"dx":0.0017,"nx":28,"ny":28,"refTime":"2024-03-23T09:00:00:Z","depth":0,"parameterNumber":3,"parameterNumberName":"V-component_of_WINDS"},"data":[0,0,0,0,0,0,0,0,0,0,0,0,0,0,0,0,0,0,0,0,0,0,0,0,0,0,0,0,0,0,0,0,0,0,0,0,0,0,0,0,0,0,0,0,0,0,0,0,0,0,0,0,0,0,0,0,0,0,3.1285,3.1285,0,3.1359,3.1359,3.136,3.1371,3.137,3.137,3.1369,3.144,3.1443,3.1445,0,0,0,0,0,0,0,0,0,0,0,0,0,3.1148,3.1151,3.1284,3.1285,3.1286,3.1358,3.1359,3.136,3.1371,3.137,3.1369,3.1369,3.1439,3.1442,3.1445,0,0,0,0,0,0,0,0,0,0,0,0,0,3.1213,3.1151,3.1284,3.13,3.1303,3.1358,3.1359,3.1361,3.1371,3.137,3.1369,3.1368,3.1439,3.1442,3.1446,3.1489,0,0,3.1457,3.1459,0,0,0,0,0,0,0,0,3.1209,3.1218,3.1297,3.1299,3.1302,3.1355,3.1338,3.1404,3.1371,3.1345,3.1369,3.1368,3.1412,3.1418,3.1434,3.1493,3.1496,3.1458,3.146,3.1462,3.1463,0,0,0,0,0,0,0,3.1205,3.1215,3.1314,3.1298,3.1301,3.1303,3.1311,3.135,3.1383,3.1347,3.1348,3.1357,3.1413,3.143,3.1436,3.1497,3.1458,3.1461,3.1463,3.1465,3.1595,3.1596,0,0,0,0,0,0,3.1198,3.1211,3.1311,3.1316,3.1252,3.1306,3.1315,3.1339,3.1383,3.1389,3.1358,3.1357,3.1424,3.1431,3.1438,3.1493,3.1462,3.1465,3.1467,3.1593,3.1595,3.1596,0,0,0,0,0,0,3.1195,3.1207,3.1308,3.1264,3.1277,3.1309,3.1336,3.1341,3.1358,3.1391,3.1396,3.137,3.1424,3.1433,3.1477,3.1495,3.1467,3.147,3.1592,3.1594,3.1596,3.1601,0,0,0,0,0,0,3.1191,3.1206,3.1224,3.1264,3.1279,3.1347,3.1337,3.1343,3.1365,3.1365,3.1403,3.1409,3.1424,3.1471,3.1481,3.15,3.1473,3.1591,3.1593,3.1595,3.16,3.1603,3.1606,0,0,0,0,0,3.1186,3.1221,3.1225,3.1237,3.1302,3.1348,3.1356,3.1375,3.1366,3.1384,3.1405,3.1407,3.1492,3.1476,3.1486,3.1507,3.159,3.1592,3.1595,3.1598,3.1602,3.1606,0,0,0,0,0,0,3.118,3.1227,3.1231,3.128,3.131,3.135,3.1373,3.1378,3.141,3.1409,3.1428,3.1437,3.148,3.1497,3.1479,3.1551,3.154,3.1545,3.1539,3.1543,3.1546,3.1541,3.1476,0,0,0,0,0,3.1185,3.122,3.1258,3.1298,3.1313,3.134,3.136,3.1372,3.1403,3.1415,3.144,3.1469,3.1502,3.1523,3.1555,3.1602,3.161,3.1621,3.1625,3.1627,3.1631,3.1658,3.1663,3.1605,3.1605,3.1605,0,0,3.1195,3.1224,3.1245,3.1297,3.1322,3.1356,3.1351,3.1387,3.1412,3.142,3.1464,3.1483,3.1516,3.1562,3.1583,3.1578,3.1649,3.163,3.1632,3.1635,3.1661,3.1666,3.1671,3.1607,3.1606,3.1606,0,0,3.123,3.1256,3.1293,3.1318,3.1355,3.1374,3.1382,3.1421,3.1434,3.1479,3.1486,3.1515,3.1571,3.1595,3.1615,3.1659,3.1663,3.1669,3.1686,3.1711,3.1716,3.172,3.1737,3.1742,3.1673,3.1673,3.1673,0,3.1237,3.1291,3.131,3.1347,3.137,3.138,3.1417,3.1439,3.1485,3.15,3.1494,3.1565,3.1588,3.164,3.1651,3.1666,3.1676,3.1665,3.1714,3.1718,3.1722,3.1738,3.1744,3.1673,3.1673,3.1673,3.1673,0,3.1298,3.1334,3.1359,3.1405,3.143,3.1466,3.149,3.1513,3.1522,3.154,3.1585,3.1613,3.1652,3.1664,3.1673,3.1717,3.1713,3.171,3.1699,3.1728,3.1744,3.175,3.1674,3.1674,3.1674,3.1674,0,0,3.1332,3.1389,3.1398,3.1419,3.1461,3.1489,3.1525,3.1565,3.1584,3.1615,3.1645,3.1693,3.1691,3.1713,3.1724,3.1746,3.178,3.174,3.1741,3.1747,3.1831,3.1834,3.1841,3.1782,3.1783,3.1784,3.1829,0,3.1374,3.1441,3.1459,3.1516,3.155,3.156,3.1591,3.162,3.1638,3.1668,3.1687,3.1721,3.1715,3.1728,3.1751,3.1771,3.1797,3.1768,3.181,3.1812,3.1803,3.1849,3.1852,3.1893,3.1835,3.1836,3.1837,0,3.1431,3.1465,3.1525,3.1564,3.1579,3.1607,3.1644,3.1673,3.1706,3.1717,3.1742,3.1751,3.1788,3.1774,3.1825,3.1804,3.1822,3.1835,3.1837,3.1843,3.1827,3.1856,3.1906,3.1913,3.1846,3.1845,3.1845,0,3.1452,3.1512,3.1556,3.1574,3.1619,3.1639,3.1658,3.169,3.1712,3.1744,3.1759,3.1794,3.1813,3.1839,3.1857,3.1845,3.1907,3.1894,3.1917,3.1916,3.193,3.1929,3.1985,3.194,3.194,3.194,3.194,0,3.1497,3.1533,3.1566,3.1593,3.1634,3.1654,3.1694,3.1713,3.1741,3.1772,3.1781,3.1809,3.183,3.1861,3.1874,3.1915,3.1923,3.1933,3.1936,3.1933,3.1932,3.1946,3.1944,3.1941,3.1941,3.1941,3.1941,0,3.1527,3.1551,3.16,3.1639,3.165,3.1678,3.1711,3.1737,3.1755,3.1793,3.1803,3.1831,3.1867,3.1888,3.1932,3.1942,3.1987,3.1988,3.1977,3.1979,3.2001,3.1999,3.2068,3.2078,3.2026,3.2026,3.2026,0,3.1555,3.1584,3.1627,3.1649,3.1669,3.1704,3.1727,3.1747,3.1771,3.1809,3.1831,3.1868,3.1899,3.1956,3.1979,3.2014,3.2017,3.2038,3.2022,3.2018,3.2018,3.2017,3.202,3.2042,3.2042,3.2042,3.2043,0,3.1603,3.1613,3.1647,3.1685,3.1713,3.1744,3.1774,3.179,3.1815,3.1841,3.1879,3.1903,3.195,3.1987,3.2023,3.2041,3.2046,3.2048,3.2055,3.2052,3.2045,3.205,3.1986,3.2046,3.2046,3.2046,3.2045,3.2045,3.1634,3.166,3.1695,3.1732,3.1757,3.1785,3.1812,3.1833,3.1866,3.1907,3.1916,3.1956,3.1987,3.2036,3.2056,3.2087,3.2083,3.2093,3.2096,3.2098,3.21,3.2039,3.2093,3.2093,3.2093,3.2093,3.2093,0,3.1683,3.1706,3.174,3.1783,3.1812,3.1815,3.1848,3.1872,3.1908,3.1937,3.1967,3.2011,3.2046,3.2072,3.2108,3.2128,3.2131,3.2137,3.2136,3.214,3.2101,3.2092,3.2134,3.2134,3.2134,3.2134,3.2134,3.2134,3.1712,3.1757,3.1771,3.1828,3.185,3.1891,3.1909,3.1935,3.1958,3.2007,3.2037,3.2054,3.2082,3.212,3.2152,3.2159,3.2172,3.2178,3.2184,3.2147,3.2143,3.2139,3.213,3.218,3.218,3.2222,3.2222,3.2222]}]]